Location: *
(35.8942°N, 23.3025°E)
Time: 22:07:28
(UTC+00:00)

ISS - Pass Details

Date: 04 December 2022
Orbit: 412 x 423 km, 51.6° (Epoch: 07 February)

Event Time Altitude Azimuth Distance (km) Brightness Sun altitude
Rises 15:49:15 0° 324° (NW) 2,347 0.2 -7.6°
Reaches altitude 10° 15:51:55 10° 347° (NNW) 1,485 -1.1 -8.1°
Maximum altitude 15:54:06 16° 28° (NNE) 1,170 -1.9 -8.5°
Enters shadow 15:55:47 12° 62° (ENE) 1,370 -1.8 -8.8°
